This is the latest recevied weather packets stored in our database for station/object N9OJR. If no packets are shown the sender has not sent any weather packets the latest 10 day(s).
| Time | Temp. | Humidity | Pressure | Rain* | Wind** | Luminosity | Snow |
|---|---|---|---|---|---|---|---|
| 1777939547 | 20° C | 59% | 1001.5 hPa | 0 mm | - | 12 W/m² | - |
| 1777939244 | 20.56° C | 59% | 1001.4 hPa | 0 mm | - | 15 W/m² | - |
| 1777938941 | 20.56° C | 58% | 1001.2 hPa | 0 mm | - | 27 W/m² | - |
| 1777938637 | 21.11° C | 58% | 1001.1 hPa | 0 mm | - | 26 W/m² | - |
| 1777938334 | 21.11° C | 58% | 1001.1 hPa | 0 mm | - | 26 W/m² | - |
| 1777938031 | 20.56° C | 58% | 1001.4 hPa | 0 mm | - | 28 W/m² | - |
| 1777937727 | 20.56° C | 59% | 1001 hPa | 0 mm | - | 32 W/m² | - |
| 1777937424 | 21.11° C | 58% | 1001 hPa | 0 mm | - | 41 W/m² | - |
| 1777937121 | 20.56° C | 59% | 1001 hPa | 0 mm | - | 67 W/m² | - |
| 1777936819 | 21.11° C | 59% | 1000.8 hPa | 0 mm | - | 35 W/m² | - |
| 1777936515 | 21.11° C | 58% | 1001 hPa | 0 mm | - | 41 W/m² | - |
| 1777936211 | 21.67° C | 57% | 1001 hPa | 0 mm | - | 56 W/m² | - |
| 1777935908 | 21.67° C | 56% | 1001.2 hPa | 0 mm | - | 67 W/m² | - |
| 1777935607 | 21.67° C | 57% | 1001.2 hPa | 0 mm | - | 94 W/m² | - |
| 1777935303 | 21.67° C | 57% | 1001.5 hPa | 0 mm | - | 110 W/m² | - |
| 1777935000 | 21.67° C | 57% | 1001.2 hPa | 0 mm | - | 124 W/m² | - |
| 1777934696 | 21.67° C | 57% | 1001.2 hPa | 0 mm | - | 142 W/m² | - |
| 1777934394 | 21.67° C | 58% | 1001.5 hPa | 0 mm | - | 87 W/m² | - |
| 1777934090 | 21.11° C | 58% | 1001.6 hPa | 0 mm | - | 166 W/m² | - |
| 1777933786 | 21.11° C | 57% | 1001.6 hPa | 0 mm | - | 88 W/m² | - |
| 1777933484 | 21.67° C | 58% | 1001.5 hPa | 0 mm | - | 90 W/m² | - |
| 1777933181 | 21.67° C | 56% | 1001.4 hPa | 0 mm | - | 108 W/m² | - |
| 1777932878 | 21.67° C | 55% | 1001.8 hPa | 0 mm | - | 135 W/m² | - |
| 1777932575 | 22.22° C | 57% | 1001.8 hPa | 0 mm | - | 118 W/m² | - |
| 1777932271 | 22.22° C | 55% | 1001.8 hPa | 0 mm | - | 154 W/m² | - |
* Rain latest hour (hover to see other rain measurements)
** Current wind speed in m/s (hover to see current wind gust speed)